Daten der privaten Wetterstation Blomberg/Lippe
Wetterdaten: aktuell Sonntag, 10.05.2026 10:30
Datum Zeit Außentemp. Rel.Feuchte Luftdruck Regen Wind Richtung Richtung Windböen
10.05.2026 10:30 15,3 °C 74 % 1013,6 hPa 0,0 l/m² 2,3 km/h (1 Bft) N 355 ° 5,5 km/h (2 Bft)
10.05.2026 10:15 14,9 °C 76 % 1013,7 hPa 0,0 l/m² 1,9 km/h (1 Bft) SW 219 ° 5,5 km/h (2 Bft)
10.05.2026 10:00 14,6 °C 80 % 1013,8 hPa 0,0 l/m² 1,9 km/h (1 Bft) S 184 ° 7,3 km/h (2 Bft)
10.05.2026 09:45 13,7 °C 83 % 1013,9 hPa 0,0 l/m² 1,6 km/h (1 Bft) S 178 ° 5,5 km/h (2 Bft)
10.05.2026 09:30 12,8 °C 88 % 1013,9 hPa 0,0 l/m² 1,9 km/h (1 Bft) S 178 ° 9,1 km/h (2 Bft)
10.05.2026 09:15 12,0 °C 90 % 1013,9 hPa 0,0 l/m² 1,4 km/h (1 Bft) O 100 ° 5,5 km/h (2 Bft)
10.05.2026 09:00 11,5 °C 92 % 1014,2 hPa 0,0 l/m² 3,1 km/h (1 Bft) S 188 ° 9,1 km/h (2 Bft)
10.05.2026 08:45 10,9 °C 94 % 1014,1 hPa 0,0 l/m² 1,4 km/h (1 Bft) SO 146 ° 3,7 km/h (1 Bft)
10.05.2026 08:30 10,1 °C 94 % 1014,1 hPa 0,0 l/m² 0,0 km/h (0 Bft) NO 39 ° 0,0 km/h (0 Bft)
10.05.2026 08:15 9,6 °C 94 % 1014,1 hPa 0,0 l/m² 0,0 km/h (0 Bft) NO 39 ° 0,0 km/h (0 Bft)
10.05.2026 08:00 9,0 °C 93 % 1014,3 hPa 0,0 l/m² 0,0 km/h (0 Bft) NO 39 ° 0,0 km/h (0 Bft)
10.05.2026 07:45 8,4 °C 93 % 1014,3 hPa 0,0 l/m² 0,0 km/h (0 Bft) NO 39 ° 0,0 km/h (0 Bft)
10.05.2026 07:30 8,0 °C 92 % 1014,4 hPa 0,0 l/m² 0,0 km/h (0 Bft) NO 39 ° 0,0 km/h (0 Bft)
10.05.2026 07:15 7,5 °C 92 % 1014,4 hPa 0,0 l/m² 0,0 km/h (0 Bft) NO 39 ° 0,0 km/h (0 Bft)
10.05.2026 07:00 7,2 °C 91 % 1014,4 hPa 0,0 l/m² 0,0 km/h (0 Bft) NO 39 ° 0,0 km/h (0 Bft)
10.05.2026 06:45 7,2 °C 90 % 1014,6 hPa 0,0 l/m² 0,0 km/h (0 Bft) NO 39 ° 0,0 km/h (0 Bft)
10.05.2026 06:30 7,3 °C 90 % 1014,5 hPa 0,0 l/m² 0,2 km/h (0 Bft) NO 39 ° 3,7 km/h (1 Bft)
10.05.2026 06:15 7,4 °C 90 % 1014,6 hPa 0,0 l/m² 0,3 km/h (0 Bft) NO 39 ° 3,7 km/h (1 Bft)
10.05.2026 06:00 7,6 °C 90 % 1014,7 hPa 0,0 l/m² 0,0 km/h (0 Bft) W 280 ° 0,0 km/h (0 Bft)
10.05.2026 05:45 7,8 °C 89 % 1014,9 hPa 0,0 l/m² 0,0 km/h (0 Bft) W 280 ° 0,0 km/h (0 Bft)
10.05.2026 05:30 8,1 °C 89 % 1014,9 hPa 0,0 l/m² 0,0 km/h (0 Bft) W 280 ° 0,0 km/h (0 Bft)
10.05.2026 05:15 8,4 °C 89 % 1014,9 hPa 0,0 l/m² 0,0 km/h (0 Bft) S-SO 148 ° 0,0 km/h (0 Bft)
10.05.2026 05:00 8,6 °C 89 % 1015,0 hPa 0,0 l/m² 0,0 km/h (0 Bft) S-SO 148 ° 0,0 km/h (0 Bft)
10.05.2026 04:45 8,8 °C 89 % 1015,1 hPa 0,0 l/m² 0,0 km/h (0 Bft) S-SO 148 ° 0,0 km/h (0 Bft)
10.05.2026 04:30 9,1 °C 89 % 1015,2 hPa 0,0 l/m² 0,0 km/h (0 Bft) S-SO 148 ° 0,0 km/h (0 Bft)
10.05.2026 04:15 9,3 °C 89 % 1015,2 hPa 0,0 l/m² 0,0 km/h (0 Bft) S-SO 148 ° 0,0 km/h (0 Bft)
10.05.2026 04:00 9,4 °C 89 % 1015,3 hPa 0,0 l/m² 0,0 km/h (0 Bft) S-SO 148 ° 0,0 km/h (0 Bft)
10.05.2026 03:45 9,5 °C 88 % 1015,4 hPa 0,0 l/m² 0,0 km/h (0 Bft) S-SO 148 ° 0,0 km/h (0 Bft)
10.05.2026 03:30 9,5 °C 88 % 1015,4 hPa 0,0 l/m² 0,0 km/h (0 Bft) S-SO 148 ° 0,0 km/h (0 Bft)
10.05.2026 03:15 9,6 °C 88 % 1015,6 hPa 0,0 l/m² 0,1 km/h (0 Bft) S-SO 148 ° 1,8 km/h (1 Bft)
10.05.2026 03:00 9,6 °C 87 % 1015,6 hPa 0,0 l/m² 0,0 km/h (0 Bft) S-SO 148 ° 1,8 km/h (1 Bft)
10.05.2026 02:45 9,7 °C 87 % 1015,8 hPa 0,0 l/m² 0,2 km/h (0 Bft) S-SO 148 ° 1,8 km/h (1 Bft)
10.05.2026 02:30 9,7 °C 86 % 1016,0 hPa 0,0 l/m² 0,4 km/h (0 Bft) S-SO 148 ° 1,8 km/h (1 Bft)
10.05.2026 02:15 9,8 °C 83 % 1016,2 hPa 0,0 l/m² 0,2 km/h (0 Bft) S-SO 148 ° 3,7 km/h (1 Bft)
10.05.2026 02:00 10,1 °C 82 % 1016,4 hPa 0,0 l/m² 0,5 km/h (0 Bft) S-SO 148 ° 3,7 km/h (1 Bft)
10.05.2026 01:45 10,3 °C 82 % 1016,5 hPa 0,0 l/m² 0,0 km/h (0 Bft) S-SO 148 ° 0,0 km/h (0 Bft)
10.05.2026 01:30 10,7 °C 81 % 1016,8 hPa 0,0 l/m² 0,0 km/h (0 Bft) S-SO 148 ° 1,8 km/h (1 Bft)
10.05.2026 01:15 11,0 °C 81 % 1016,8 hPa 0,0 l/m² 0,3 km/h (0 Bft) S-SO 148 ° 3,7 km/h (1 Bft)
10.05.2026 01:00 11,2 °C 82 % 1016,7 hPa 0,0 l/m² 1,3 km/h (1 Bft) S-SO 148 ° 12,8 km/h (3 Bft)
10.05.2026 00:45 11,3 °C 82 % 1016,7 hPa 0,0 l/m² 0,6 km/h (0 Bft) SO 130 ° 5,5 km/h (2 Bft)
10.05.2026 00:30 11,4 °C 81 % 1017,1 hPa 0,0 l/m² 0,4 km/h (0 Bft) SO 130 ° 3,7 km/h (1 Bft)
10.05.2026 00:15 11,5 °C 81 % 1017,1 hPa 0,0 l/m² 0,8 km/h (0 Bft) SO 130 ° 5,5 km/h (2 Bft)
10.05.2026 00:00 11,7 °C 80 % 1017,2 hPa 0,0 l/m² 0,5 km/h (0 Bft) N 360 ° 5,5 km/h (2 Bft)
09.05.2026 23:45 11,9 °C 79 % 1017,2 hPa 0,0 l/m² 0,2 km/h (0 Bft) N 360 ° 5,5 km/h (2 Bft)
09.05.2026 23:30 12,3 °C 78 % 1017,5 hPa 0,0 l/m² 0,3 km/h (0 Bft) O 90 ° 3,7 km/h (1 Bft)
09.05.2026 23:15 12,6 °C 77 % 1017,5 hPa 0,0 l/m² 0,4 km/h (0 Bft) O 90 ° 3,7 km/h (1 Bft)
09.05.2026 23:00 12,9 °C 76 % 1017,4 hPa 0,0 l/m² 1,1 km/h (1 Bft) O 92 ° 7,3 km/h (2 Bft)
09.05.2026 22:45 13,2 °C 75 % 1017,4 hPa 0,0 l/m² 0,7 km/h (0 Bft) O-SO 117 ° 5,5 km/h (2 Bft)
09.05.2026 22:30 13,5 °C 75 % 1017,3 hPa 0,0 l/m² 1,1 km/h (1 Bft) O-SO 117 ° 7,3 km/h (2 Bft)
_ Min-Zeit 06:45 14:30 10:30 - 01:30 - - 01:45
Minimum _ 7,2 °C 55 % 1013,6 hPa - 0,0 km/h (0 Bft) - - 0,0 km/h (0 Bft)
_ Max-Zeit 14:45 08:15 11:00 11:00 12:15 - - 14:45
Maximum _ 18,1 °C 94 % 1020,6 hPa 0,0 l/m² 5,9 km/h
S (2 Bft)
- - 20,1 km/h
S-SO (4 Bft)
Durchschnitt _ 13,5 °C 74 % 1017,1 hPa #0,0 l/m² 2,2 km/h (1 Bft) S - 8,3 km/h (2 Bft)
Wetterstation: Davis Vantage Pro2 Aktiv